Home > Time Zones > World Clock > Weather > Italy > Milan > Past weeks

Flag for Italy Weather past 2 weeks in Milan, Italy

Now
72 °F

Passing clouds.


Feels Like: 75 °F
Forecast: 50 / 73 °F
Wind: 3 mph from West

Location: Milan / Linate

Current Time: Sep 5, 2015 at 2:18:15 AM

Latest Report: Sep 5, 2015 at 1:50 AM


Visibility: N/A

Pressure: 29.83 "Hg

Humidity: 65%

Dew point: 59 °F

Location of MilanLocation

Historic Weather in Milan — Graph

°F

Milan temperature yesterday

Maximum temperature yesterday: 79 °F (at 1:50 PM)
Minimum temperature yesterday: 64 °F (at 4:50 AM)
Average temperature yesterday: 72 °F

Past Weeks' High & Low Weather Summary

 TemperatureHumidityPressure
High91 °F (Aug 29, 4:20 PM)100% (Aug 24, 6:50 AM)30.21 "Hg (Aug 24, 6:50 AM)
Low63 °F (Aug 24, 6:50 AM)20% (Aug 31, 5:20 PM)29.80 "Hg (Sep 2, 4:50 PM)
Average74 °F67%30.00 "Hg
* Reported Aug 21 12:50 AM — Sep 5 12:50 AM, Milan, Weather by CustomWeather, © 2015

Note: Actual official high and low records may vary slightly from our data, if they occured in-between our weather recording intervals... More about our weather records

Advertising

Milan weather history for previous 24 hours

 ConditionsComfort  
Time TempWeatherWind HumidityBarometerVisibility
12:50 AM
Sat, Sep 5
72 °FPassing clouds.5 mph65%29.83 "HgN/A
12:20 AM72 °FPassing clouds.5 mph69%29.86 "HgN/A
11:20 PM
Fri, Sep 4
70 °FPassing clouds.No wind73%29.86 "HgN/A
10:50 PM70 °FPassing clouds.1 mph73%29.86 "HgN/A
10:20 PM72 °FPassing clouds.2 mph69%29.86 "HgN/A
9:50 PM72 °FPassing clouds.1 mph65%29.83 "HgN/A
9:20 PM73 °FPassing clouds.2 mph61%29.86 "HgN/A
8:50 PM75 °FPassing clouds.2 mph57%29.83 "HgN/A
8:20 PM73 °FPassing clouds.2 mph65%29.83 "HgN/A
7:50 PM75 °FPassing clouds.2 mph57%29.83 "HgN/A
7:20 PM77 °FPassing clouds.2 mph54%29.83 "HgN/A
6:50 PM77 °FPassing clouds.3 mph54%29.86 "HgN/A
6:20 PM79 °FPassing clouds.6 mph48%29.86 "HgN/A
5:50 PM79 °FScattered clouds.6 mph48%29.86 "HgN/A
5:20 PM79 °FScattered clouds.6 mph48%29.86 "HgN/A
4:50 PM79 °FScattered clouds.5 mph48%29.86 "HgN/A
4:20 PM79 °FScattered clouds.5 mph48%29.86 "HgN/A
3:50 PM79 °FScattered clouds.5 mph51%29.86 "HgN/A
3:20 PM79 °FScattered clouds.3 mph51%29.86 "HgN/A
2:50 PM79 °FPartly sunny.6 mph51%29.89 "HgN/A
2:20 PM79 °FPartly sunny.2 mph51%29.89 "HgN/A
1:50 PM79 °FPartly sunny.6 mph51%29.89 "HgN/A
1:20 PM77 °FScattered clouds.7 mph54%29.89 "HgN/A
12:50 PM77 °FScattered clouds.3 mph54%29.92 "HgN/A
12:20 PM77 °FScattered clouds.5 mph57%29.92 "HgN/A
11:50 AM73 °FScattered clouds.5 mph61%29.92 "HgN/A
11:20 AM75 °FScattered clouds.3 mph57%29.92 "HgN/A
10:50 AM72 °FScattered clouds.3 mph65%29.92 "HgN/A
10:20 AM72 °FScattered clouds.2 mph65%29.92 "HgN/A
9:50 AM70 °FScattered clouds.2 mph69%29.92 "HgN/A
9:20 AM68 °FBroken clouds.3 mph73%29.92 "HgN/A
8:50 AM68 °FScattered clouds.3 mph73%29.92 "HgN/A
8:20 AM68 °FScattered clouds.2 mph73%29.92 "HgN/A
7:50 AM66 °FScattered clouds.1 mph78%29.89 "HgN/A
7:20 AM64 °FPassing clouds.No wind83%29.89 "HgN/A
6:50 AM64 °FPassing clouds.1 mph83%29.89 "HgN/A
6:20 AM64 °FPassing clouds.No wind83%29.89 "HgN/A
5:50 AM64 °FPassing clouds.1 mph78%29.89 "HgN/A
5:20 AM64 °FPassing clouds.2 mph83%29.89 "HgN/A
4:50 AM64 °FPassing clouds.3 mph83%29.86 "HgN/A
4:20 AM66 °FPassing clouds.3 mph78%29.89 "HgN/A
3:50 AM66 °FPassing clouds.2 mph73%29.89 "HgN/A
3:20 AM66 °FPassing clouds.2 mph73%29.86 "HgN/A
2:50 AM66 °FPassing clouds.5 mph73%29.89 "HgN/A
2:20 AM66 °FPassing clouds.3 mph73%29.89 "HgN/A
Weather by CustomWeather, © 2015

See weather overviewHow to use our weather pages